This is the latest recevied weather packets stored in our database for station/object KI6PPU. If no packets are shown the sender has not sent any weather packets the latest 10 day(s).
| Time | Temp. | Humidity | Pressure | Rain* | Wind** | Luminosity | Snow |
|---|---|---|---|---|---|---|---|
| 1788550435 | 21.11° C | 61% | 1017.1 hPa | 0 mm | - | 892 W/m² | - |
| 1788550130 | 21.11° C | 63% | 1017.1 hPa | 0 mm | - | 909 W/m² | - |
| 1788549825 | 21.67° C | 68% | 1017.1 hPa | 0 mm | - | 539 W/m² | - |
| 1788549543 | 20° C | 68% | 1017.2 hPa | 0 mm | - | 471 W/m² | - |
| 1788549218 | 19.44° C | 72% | 1017.3 hPa | 0 mm | - | 367 W/m² | - |
| 1788548914 | 19.44° C | 67% | 1017.2 hPa | 0 mm | - | 378 W/m² | - |
| 1788548610 | 19.44° C | 66% | 1017.3 hPa | 0 mm | - | 473 W/m² | - |
| 1788548306 | 18.89° C | 74% | 1017.3 hPa | 0 mm | - | 566 W/m² | - |
| 1788548001 | 18.89° C | 70% | 1017.6 hPa | 0 mm | - | 688 W/m² | - |
| 1788547701 | 18.89° C | 76% | 1017.3 hPa | 0 mm | - | 686 W/m² | - |
| 1788547396 | 18.33° C | 77% | 1017.3 hPa | 0 mm | - | 557 W/m² | - |
| 1788547091 | 17.78° C | 80% | 1017.2 hPa | 0 mm | - | 303 W/m² | - |
| 1788546786 | 18.33° C | 79% | 1017.2 hPa | 0 mm | - | 269 W/m² | - |
| 1788546481 | 17.78° C | 80% | 1017.5 hPa | 0 mm | - | 406 W/m² | - |
| 1788546176 | 17.22° C | 84% | 1017.6 hPa | 0 mm | - | 279 W/m² | - |
| 1788545872 | 17.22° C | 82% | 1017.4 hPa | 0 mm | - | 236 W/m² | - |
| 1788545572 | 16.67° C | 82% | 1017.4 hPa | 0 mm | - | 257 W/m² | - |
| 1788545267 | 16.67° C | 84% | 1017.4 hPa | 0 mm | - | 218 W/m² | - |
| 1788544963 | 16.67° C | 83% | 1017.4 hPa | 0 mm | - | 235 W/m² | - |
| 1788544661 | 16.67° C | 86% | 1017.2 hPa | 0 mm | - | 459 W/m² | - |
| 1788544360 | 16.67° C | 87% | 1017.4 hPa | 0 mm | - | 220 W/m² | - |
| 1788544055 | 16.11° C | 86% | 1017.5 hPa | 0 mm | - | 192 W/m² | - |
| 1788543751 | 16.11° C | 87% | 1017.5 hPa | 0 mm | - | 220 W/m² | - |
| 1788543446 | 16.11° C | 88% | 1017.2 hPa | 0 mm | - | 196 W/m² | - |
| 1788543141 | 16.11° C | 89% | 1017.3 hPa | 0 mm | - | 234 W/m² | - |
* Rain latest hour (hover to see other rain measurements)
** Current wind speed in m/s (hover to see current wind gust speed)